Regional Weather Roundup
Issued by NWS

Home | Current Version | Previous Version | Graphics & Text | Print | Product List | Glossary On
Versions: 1 2 3 4 5 6 7 8 9 10 11 12 13 14 15 16 17 18 19 20 21 22 23 24 25 26 27 28 29 30 31 32 33 34 35 36 37 38 39 40 41 42 43 44 45 46 47 48 49 50
000
ASUS45 KBOU 010107
RWRCO

WEATHER ROUNDUP FOR COLORADO
NATIONAL WEATHER SERVICE DENVER/BOULDER CO
600 PM MST SAT JAN 31 2015

NOTE: "FAIR" INDICATES FEW OR NO CLOUDS BELOW 12000 FEET WITH NO
SIGNIFICANT WEATHER AND/OR OBSTRUCTIONS TO VISIBILITY.

COZ001>005-013-030-031-010200-
...NORTHWEST COLORADO...

CITY           SKY/WX    TMP DP  RH WIND       PRES   REMARKS
CRAIG          PTCLDY    32  25  75 CALM      29.93R
HAYDEN         MOCLDY    30  25  80 E3        29.92S
MEEKER         CLOUDY    34  27  75 CALM      29.95R
MOUNT WERNER   NOT AVBL
STEAMBOAT SPGS CLOUDY    30  27  88 E3        29.92S
WALDEN         CLOUDY    30  27  86 W10       29.87R WCI  21
$$

COZ006>008-011-010200-
...WEST CENTRAL VALLEYS...

CITY           SKY/WX    TMP DP  RH WIND       PRES   REMARKS
GRAND JUNCTION MOCLDY    40  38  93 NE6       29.94R
MONTROSE       CLOUDY    38  35  89 S6        29.97R
EAGLE          MOCLDY    36  34  93 CALM      29.94R
RIFLE          CLOUDY    40  28  62 W12       29.94R
DELTA          CLOUDY    43  39  88 NE3       29.95R
NUCLA          CLOUDY    37  36  93 CALM      29.99R
$$

COZ017>023-064>068-010200-
...SOUTHWEST COLORADO...

CITY           SKY/WX    TMP DP  RH WIND       PRES   REMARKS
DURANGO        CLOUDY    35  33  92 SW5       29.88R WCI  31
CORTEZ         CLOUDY    38  34  85 W6        29.94R
PAGOSA SPRINGS LGT SNOW  34  34 100 CALM      29.90R
TELLURIDE      CLOUDY    29  29 100 W10       29.95S FOG     WCI  20
WOLF CREEK PAS FOG       19  19 100 SW8       29.95R VSB 1/4 WCI   9
$$

COZ009-010-012-014-032>034-037-058>063-010200-
...CENTRAL COLORADO...

CITY           SKY/WX    TMP DP  RH WIND       PRES   REMARKS
ASPEN          CLOUDY    32  29  88 CALM      29.91R
BUENA VISTA    MOCLDY    32  29  92 CALM      29.83S
COPPER MTN     HAZE      23  18  80 W24G33    29.89S VSB 3/4 WCI   7
BERTHOUD PASS  SNOW      14   9  79 NW40G46   29.82S VSB 1/2 WCI  -9
COTTONWOOD PAS PTCLDY    34  23  64 W14G26    29.85R WCI  24
GUNNISON       PTCLDY    34  25  69 W12       29.90R WCI  25
KREMMLING      MOCLDY    34  27  75 N7        29.91R WCI  28
LEADVILLE      CLOUDY    25  21  85 NW10      29.86R WCI  15
MONARCH PASS   CLOUDY    21  19  93 MISG      30.00R
SALIDA         PTCLDY    35  32  88 W5        29.90R WCI  31
SUNLIGHT       FOG      N/A N/A N/A W3          N/A  VSB 1/4
WILKERSON PASS MOCLDY    21  19  93 NW14G21   29.87S WCI   8
$$

COZ069>075-010200-
...SAN LUIS VALLEY/SANGRE DE CRISTO MOUNTAINS...

CITY           SKY/WX    TMP DP  RH WIND       PRES   REMARKS
ALAMOSA        CLOUDY    32  30  92 CALM      29.85R
LA VETA PASS   LGT SNOW  27  23  86 MISG      29.82R
SAGUACHE       FLURRIES  32  30  93 E5        29.87R WCI  27
$$

COZ035-036-038>040-010200-
...NORTHERN COLORADO FRONT RANGE...

CITY           SKY/WX    TMP DP  RH WIND       PRES   REMARKS
DENVER INTL AP CLOUDY    33  30  88 SW3       29.81R
DMNS CITY PARK   N/A     35  28  73 NE1       29.82R
AURORA         MOCLDY    33  32  99 CALM      29.82R
FRONT RANGE AP NOT AVBL
ERIE MUNI ARPT MOCLDY    32  28  85 CALM      29.83R
BOULDER MUN AP CLOUDY    36  28  75 CALM      29.82R
CENTENNIAL     CLOUDY    34  28  79 SE3       29.81R
BROOMFIELD     MOCLDY    36  27  69 CALM      29.82R
FORT COLLINS   MOCLDY    34  27  75 E6        29.84R WCI  29
LONGMONT       MOCLDY    35  27  71 CALM      29.85R
$$

COZ041-046-047-076>085-087-088-010200-
...PIKES PEAK/PALMER DIVIDE AND SOUTHERN FOOTHILLS...

CITY           SKY/WX    TMP DP  RH WIND       PRES   REMARKS
COLO. SPRINGS  CLOUDY    34  33  96 N3        29.82R FOG
A. F. ACADEMY  CLOUDY    31  30  95 N6        29.81R WCI  26
ELLICOTT       CLOUDY   N/A N/A N/A N5        29.80R
FALCON         CLOUDY    31  29  91 W7        29.81R WCI  24
FORT CARSON    CLOUDY    35  35  99 NE2       29.80R
LIMON          CLOUDY    32  31  96 NW10      29.80R WCI  24
MONUMENT HILL  CLOUDY    28  28 100 W8        29.80R FOG     WCI  20
TRINIDAD       CLOUDY    39  31  72 NE8       29.79R
$$

COZ042>045-048>051-090-091-010200-
...NORTHEAST COLORADO...

CITY           SKY/WX    TMP DP  RH WIND       PRES   REMARKS
GREELEY ARPT   MOCLDY    37  28  70 E6        29.82S
AKRON          CLOUDY    32  32 100 N12       29.81R FOG     WCI  23
BURLINGTON     FLURRIES  34  32  92 N9        29.79R WCI  27
WRAY           LGT SNOW N/A N/A N/A N6        29.82R
STERLING       FLURRIES  32  32 100 N6        29.84R WCI  26
HOLYOKE        NOT AVBL
FORT MORGAN    LGT RAIN  33  32  95 N8        29.85R WCI  26
$$

COZ086-089-092>099-010200-
...SOUTHEAST COLORADO...

CITY           SKY/WX    TMP DP  RH WIND       PRES   REMARKS
PUEBLO         LGT RAIN  39  36  89 NE9       29.81R
LA JUNTA       LGT RAIN  41  33  73 N15       29.81R
LAMAR          LGT RAIN  41  38  89 N3        29.78R
SPRINGFIELD      N/A     38  36  92 N8        29.78R
$$



USA.gov is the U.S. government's official web portal to all federal, state and local government web resources and services.